This demonstration page uses our WeatherBlox Daily Observations layout. Learn more.

Left ArrowRight Arrow

41.55636, -103.73856

Hourly Observations for August 1, 2020

Temp ( °F °C ) Dew Point ( °F °C ) Humidity (%) Winds ( mph kmh ) Pressure ( in mb ) Visibility ( mi km ) Precip ( " mm )
6:58 pm 18:58 Clear 82 27.9 44 6.6 26 26 ENE 13 20 30.07 1018 10 16 0.00 0.00
7:58 pm 19:58 Clear 75 23.7 45 7.4 35 35 E 9 15 30.09 1019 10 16 0.00 0.00
8:58 pm 20:58 Clear 71 21.8 45 7.3 39 39 SE 12 19 30.10 1019 10 16 0.00 0.00
9:58 pm 21:58 Clear 70 21 50 9.8 49 49 SSE 13 20 30.11 1020 10 16 0.00 0.00
10:58 pm 22:58 Clear 69 20.3 50 9.9 51 51 S 15 24 30.10 1019 10 16 0.00 0.00
11:58 pm 23:58 Clear 67 19.3 49 9.7 54 54 SSW 10 17 30.11 1020 10 16 0.00 0.00
12:58 am 00:58 Clear 65 18.3 51 10.3 60 60 SSW 13 20 30.11 1020 10 16 0.00 0.00
1:58 am 01:58 Clear 64 17.6 51 10.4 63 63 Calm 30.09 1019 10 16 0.00 0.00
2:58 am 02:58 Clear 64 17.5 50 10.1 62 62 SW 7 11 30.08 1019 10 16 0.00 0.00
3:58 am 03:58 Clear 64 17.6 49 9.6 60 60 W 6 9 30.07 1018 10 16 0.00 0.00
4:58 am 04:58 Partly Cloudy 60 15.3 50 9.9 70 70 N 3 6 30.09 1019 10 16 0.00 0.00
5:58 am 05:58 Partly Cloudy 60 15.7 50 9.9 69 69 ESE 6 9 30.09 1019 10 16 0.00 0.00
6:58 am 06:58 Sunny 61 16 52 11 72 72 Calm 30.11 1020 10 16 0.00 0.00
7:58 am 07:58 Sunny 68 20 52 11 56 56 Calm 30.12 1020 10 16 0.00 0.00
8:58 am 08:58 Sunny 71 21.7 51 10.7 50 50 NNE 6 9 30.13 1020 10 16 0.00 0.00
9:58 am 09:58 Sunny 76 24.2 51 10.4 42 42 NE 9 15 30.13 1020 10 16 0.00 0.00
10:58 am 10:58 Sunny 77 25.1 51 10.6 40 40 NE 8 13 30.13 1020 10 16 0.00 0.00
11:56 am 11:56 Sunny 81 27 50 9.8 34 34 NE 9 15 30.13 1020 10 16 0.00 0.00
12:58 pm 12:58 Sunny 82 27.8 47 8.2 29 29 NE 14 22 30.11 1020 10 16 0.00 0.00
1:58 pm 13:58 Sunny 84 28.8 45 7.2 26 26 NE 9 15 30.09 1019 10 16 0.00 0.00
2:58 pm 14:58 Sunny 85 29.4 41 5.1 21 21 NNE 13 20 30.09 1019 10 16 0.00 0.00
3:58 pm 15:58 Sunny 85 29.3 40 4.4 20 20 NE 13 20 30.06 1018 10 16 0.00 0.00
4:58 pm 16:58 Sunny 85 29.5 39 4.1 20 20 ENE 15 24 30.06 1018 10 16 0.00 0.00
5:58 pm 17:58 Sunny 82 27.6 39 4.1 22 22 E 10 17 30.07 1018 10 16 0.00 0.00

Powered by AerisWeather